Location: Ahstedt
(52.2048°N, 10.1060°E)
Time: 07:15:27
(UTC+00:00)

Cosmos 44 - Pass Details

Date: 18 January 2026
Orbit: 570 x 780 km, 65.1° (Epoch: 19 February)

Event Time Altitude Azimuth Distance (km) Brightness Sun altitude
Exits shadow 04:08:48 75° 93° (E) 806 3.6 -28.4°
Drops below altitude 10° 04:13:51 10° 134° (SE) 2,331 6.5 -27.7°
Sets 04:16:16 0° 136° (SE) 3,252 7.3 -27.3°
